Lake Granby Weather Center

Moon Phase Calendar



Lake Granby Water Level
Online Cameras

 


      

Current Conditions in Granby
4/18/2021 5:26:12 PM

42°F
Feels Like 35
Clouds
Humidity
33%
Pressure
30.15"
Wind
12.7 mph (W)
Dew Point
17°F
UV Index
2/10 (Low)
Visibility
6 mi

Hourly Forecast

Date & Time Sun, Apr 18
5:00 PM
Sun, Apr 18
6:00 PM
Sun, Apr 18
7:00 PM
Sun, Apr 18
8:00 PM
Sun, Apr 18
9:00 PM
Sun, Apr 18
10:00 PM
Sun, Apr 18
11:00 PM
Mon, Apr 19
12:00 AM
Mon, Apr 19
1:00 AM
Mon, Apr 19
2:00 AM
Mon, Apr 19
3:00 AM
Mon, Apr 19
4:00 AM
Mon, Apr 19
5:00 AM
Mon, Apr 19
6:00 AM
Mon, Apr 19
7:00 AM
Mon, Apr 19
8:00 AM
Mon, Apr 19
9:00 AM
Mon, Apr 19
10:00 AM
Mon, Apr 19
11:00 AM
Mon, Apr 19
12:00 PM
Mon, Apr 19
1:00 PM
Mon, Apr 19
2:00 PM
Mon, Apr 19
3:00 PM
Mon, Apr 19
4:00 PM
Mon, Apr 19
5:00 PM
Mon, Apr 19
6:00 PM
Mon, Apr 19
7:00 PM
Mon, Apr 19
8:00 PM
Mon, Apr 19
9:00 PM
Mon, Apr 19
10:00 PM
Mon, Apr 19
11:00 PM
Tue, Apr 20
12:00 AM
Tue, Apr 20
1:00 AM
Tue, Apr 20
2:00 AM
Tue, Apr 20
3:00 AM
Tue, Apr 20
4:00 AM
Tue, Apr 20
5:00 AM
Tue, Apr 20
6:00 AM
Tue, Apr 20
7:00 AM
Tue, Apr 20
8:00 AM
Tue, Apr 20
9:00 AM
Tue, Apr 20
10:00 AM
Tue, Apr 20
11:00 AM
Tue, Apr 20
12:00 PM
Tue, Apr 20
1:00 PM
Tue, Apr 20
2:00 PM
Tue, Apr 20
3:00 PM
Tue, Apr 20
4:00 PM
Condition
Snow

Snow

Clouds

Clouds

Clouds

Clouds

Clouds

Clouds

Clouds

Clouds

Clouds

Snow

Clouds

Snow

Clouds

Clouds

Snow

Snow

Snow

Snow

Snow

Snow

Snow

Snow

Snow

Snow

Snow

Snow

Snow

Snow

Snow

Clouds

Clouds

Clouds

Clouds

Clouds

Clouds

Clouds

Clouds

Clouds

Clouds

Clouds

Clouds

Clouds

Clouds

Clouds

Clouds

Clouds
Temperature 42°F40°F38°F30°F25°F20°F19°F18°F18°F18°F21°F22°F22°F22°F24°F29°F32°F34°F35°F36°F38°F38°F38°F34°F32°F29°F23°F18°F17°F15°F13°F8°F7°F5°F2°F2°F1°F1°F4°F14°F19°F22°F25°F27°F28°F30°F31°F32°F
Feels Like 37°F36°F35°F30°F25°F20°F19°F18°F18°F18°F15°F14°F14°F15°F19°F23°F25°F26°F27°F27°F29°F29°F29°F28°F32°F29°F16°F9°F9°F8°F13°F8°F7°F5°F2°F2°F1°F1°F4°F14°F15°F17°F19°F21°F22°F24°F24°F25°F
Cloudiness 40%51%55%54%58%67%68%63%31%33%50%62%68%73%100%99%100%100%100%99%100%100%99%100%100%100%100%100%100%100%100%99%94%97%97%97%95%93%72%58%49%38%34%38%62%62%63%66%
Visibility 4 mi6 mi6 mi6 mi6 mi6 mi6 mi6 mi6 mi6 mi5 mi2 mi1 mi0 mi2 mi4 mi6 mi4 mi2 mi1 mi2 mi3 mi2 mi0 mi0 mi0 mi0 mi0 mi0 mi0 mi1 mi3 mi2 mi3 mi4 mi5 mi6 mi6 mi6 mi6 mi6 mi6 mi6 mi6 mi6 mi6 mi6 mi6 mi
Precipitation 66%64%27%4%0%0%0%0%0%1%9%29%8%28%0%4%24%32%31%51%96%97%100%100%100%100%100%100%98%98%98%78%23%19%8%6%3%3%0%0%0%0%0%0%27%30%30%30%
Humidity 33%42%55%69%82%95%95%95%95%95%94%95%96%96%95%90%81%77%81%83%76%75%83%94%94%97%97%96%95%96%96%98%98%98%99%99%99%98%95%85%77%73%71%70%70%70%70%69%
Dew Point 17°F20°F24°F22°F21°F15°F14°F13°F13°F13°F16°F17°F17°F18°F20°F23°F24°F25°F27°F28°F28°F28°F30°F30°F27°F25°F19°F13°F11°F9°F8°F2°F0°F-2°F-4°F-4°F-5°F-6°F-3°F6°F10°F12°F13°F15°F17°F18°F19°F20°F
Pressure 30.15"30.12"30.12"30.21"30.27"30.33"30.33"30.33"30.33"30.3"30.21"30.21"30.18"30.18"30.12"30.03"29.94"29.88"29.85"29.83"29.77"29.74"29.71"29.74"29.77"29.85"30"30.18"30.27"30.33"30.36"30.5"30.53"30.56"30.62"30.62"30.65"30.68"30.62"30.42"30.3"30.24"30.18"30.15"30.09"30.06"30"29.97"
Wind Speed 6.9 mph5.6 mph4.1 mph2.1 mph1 mph0.9 mph1 mph0.7 mph1 mph2.6 mph4.4 mph6.8 mph6.3 mph5.2 mph4.1 mph4.6 mph7.7 mph10.8 mph12.3 mph13.7 mph15.2 mph16.6 mph16 mph6.8 mph2.1 mph2.7 mph5.2 mph6.4 mph5 mph4 mph2.8 mph2.6 mph1.9 mph0.9 mph0.9 mph0.7 mph0.8 mph0.9 mph0.6 mph2.1 mph3.2 mph4 mph4.6 mph5 mph5.4 mph6.1 mph6.8 mph7.2 mph
Wind
Direction
278°
W
273°
W
263°
W
247°
WSW
203°
SSW
183°
S
193°
SSW
223°
SW
247°
WSW
260°
W
260°
W
255°
WSW
258°
WSW
262°
W
266°
W
280°
W
265°
W
267°
W
269°
W
269°
W
264°
W
252°
WSW
255°
WSW
282°
WNW
270°
W
149°
SSE
69°
ENE
74°
ENE
94°
E
102°
ESE
92°
E
86°
E
88°
E
63°
ENE
23°
NNE
12°
NNE
12°
NNE
27°
NNE
358°
N
271°
W
266°
W
263°
W
262°
W
263°
W
265°
W
270°
W
274°
W
278°
W

Daily Forecast

Date High Low Precip. Humidity
Today
Apr 18

Snow
42 °F
5 °F
66%
69%
Monday
Apr 19

Snow
38 °F
13 °F
100%
76%
Tuesday
Apr 20

Snow
31 °F
1 °F
78%
70%
Wednesday
Apr 21

Snow
30 °F
10 °F
100%
90%
Thursday
Apr 22

Snow
36 °F
14 °F
100%
87%
Friday
Apr 23

Snow
39 °F
15 °F
98%
76%
Saturday
Apr 24

Clouds
45 °F
22 °F
32%
76%
Sunday
Apr 25

Clouds
53 °F
27 °F
4%
62%
Monday
Apr 26

Clouds
54 °F
33 °F
0%
43%
Tuesday
Apr 27

Snow
41 °F
28 °F
100%
40%
Wednesday
Apr 28

Snow
44 °F
28 °F
80%
53%
Thursday
Apr 29

Clouds
50 °F
26 °F
0%
46%
Friday
Apr 30

Snow
42 °F
34 °F
97%
94%
Saturday
May 1

Snow
41 °F
27 °F
100%
74%
Sunday
May 2

Rain
46 °F
24 °F
83%
56%
Monday
May 3

Snow
42 °F
31 °F
78%
76%

Temperature 8-14 Day Outlook



Precipitation 8-14 Day Outlook




Quick Links
Lake Granby News
Lake Granby Photos
Lake Granby Videos




About Us
Contact Us
Site Map
Search Site
Advertise With Us
   
Granby.USLakes.info
THE LAKE GRANBY WEBSITE

Copyright 2021, Lakes Online
Privacy    |    Legal